Вернуться в каталог

STARLINK-4810

АктивенСвязьVLEO
NORAD 53869·PAYLOAD·🇺🇸 United States

Запущен Sep 19, 2022 с Cape Canaveral Space Force Station

Loading…

Ближайшие Пролёты (ближайшие 24 часа)

TLE

СвежийSource: CelesTrak SupGP

Эпоха: Sep 14, 2026, 21:06 UTC

1 53869C 22114BD  26257.87965278 -.00026611  00000+0 -85593-3 0  2572
2 53869  53.1564 132.2051 0001221  88.9297 294.2940 15.31707781    11

Отслеживайте STARLINK-4810 в реальном времени с AllMySat

Download on the App Store